User: anonymous   Login
Location: Ku?niki
(51.4449°N, 17.8974°E)
Time: 05:51:28
(UTC+00:00)
Language:

ISS - Orbit

View from above orbital plane
View from above orbital plane
View from above satellite
View from above satellite

Ground track
Ground track

The orbit data is extracted from the following two-line orbital elements,

1 25544U 98067A   22136.01528735  .00008133  00000-0  15323-3 0  9997
2 25544  51.6392 135.9071 0005084 124.4194 285.9422 15.49447483340194
Epoch (UTC): 16 May 2022 00:22:00
Eccentricity: 0.0005084
inclination: 51.6392°
perigee height: 415 km
apogee height: 422 km
right ascension of ascending node: 135.9071°
argument of perigee: 124.4194°
revolutions per day: 15.49447483
mean anomaly at epoch: 285.9422°
orbit number at epoch: 34019

The dashed part of the orbit path shows where the satellite is in the earth's shadow,  

DLR